Overview Statistics Trail Chart Weather Telemetry Raw packets
 

This is the latest recevied weather packets stored in our database for station/object W8RSN-13. If no packets are shown the sender has not sent any weather packets the latest 10 day(s).

<< 35 36 37 38 39 40 41 >>
Time Temp. Humidity Pressure Rain* Wind** Luminosity Snow
1788442769 14.44° C 73% 1016.1 hPa - - - -
1788442468 14.44° C 73% 1016.2 hPa - - - -
1788442167 14.44° C 74% 1016.2 hPa - - - -
1788441866 14.44° C 73% 1016.3 hPa - - - -
1788441565 14.44° C 72% 1016.3 hPa - - - -
1788441265 15° C 72% 1016.1 hPa - - - -
1788440964 15° C 73% 1016 hPa - - - -
1788440663 15° C 71% 1016 hPa - - - -
1788440362 15° C 71% 1016.1 hPa - - - -
1788440061 15° C 72% 1016.1 hPa - - - -
1788439760 15° C 72% 1016.1 hPa - - - -
1788439473 15° C 74% 1016.1 hPa - - - -
1788439158 14.44° C 74% 1016.1 hPa - - - -
1788438857 15° C 74% 1016.2 hPa - - - -
1788438557 15° C 73% 1016.1 hPa - - - -
1788438256 15.56° C 72% 1016.2 hPa - - - -
1788437975 15.56° C 68% 1016.2 hPa - - - -
1788437674 15.56° C 69% 1016.3 hPa - - - -
1788437373 15° C 71% 1016.2 hPa - - - -
1788437072 14.44° C 71% 1016.2 hPa - - - -
1788436772 15° C 73% 1016.6 hPa - - - -
1788436490 15° C 70% 1016.4 hPa - - - -
1788436169 15.56° C 68% 1016.4 hPa - - - -
1788435868 15.56° C 70% 1016.3 hPa - - - -
1788435568 15.56° C 70% 1016.4 hPa - - - -

* Rain since midnight (hover to see other rain measurements)
** Current wind speed in m/s (hover to see current wind gust speed)